Regional Weather Roundup
Issued by NWS

Home | Current Version | Previous Version | Text Only | Print | Product List | Glossary Off
Versions: 1 2 3 4 5 6 7 8 9 10 11 12 13 14 15 16 17 18 19 20 21 22 23 24 25 26 27 28 29 30 31 32 33 34 35 36 37 38 39 40 41 42 43 44 45 46 47 48 49 50

000
ASUS43 KLMK 251910
RWRKY
KENTUCKY REGIONAL WEATHER ROUNDUP
NATIONAL WEATHER SERVICE LOUISVILLE KY
200 PM EST SUN JAN 25 2015

NOTE "FAIR" INDICATES FEW OR NO CLOUDS BELOW 12,000 FEET
WITH NO SIGNIFICANT WEATHER AND/OR OBSTRUCTIONS TO VISIBILITY.

KYZ001>023-026-027-061>063-070>075-252000-
WESTERN AND SOUTH CENTRAL KENTUCKY

CITY           SKY/WX    TMP DP  RH WIND       PRES   REMARKS
PADUCAH        LGT RAIN  42  40  92 SW10      29.61F FOG
HENDERSON      CLOUDY    43  37  81 S9        29.60F
OWENSBORO      LGT RAIN  42  40  93 S6        29.62F FOG
HOPKINSVILLE   DRIZZLE   48  39  71 S12       29.61F
BOWLING GREEN  CLOUDY    49  34  56 S12       29.63F
GLASGOW        CLOUDY    50  35  56 S10       29.63F
$$

KYZ024-025-028>034-038-045-046-053-252000-
NORTH CENTRAL KENTUCKY

CITY           SKY/WX    TMP DP  RH WIND       PRES   REMARKS
LOUISVILLE/SDF LGT RAIN  44  36  73 SE8       29.64F
LOUISVILLE/LOU LGT RAIN  43  35  73 SE7       29.64F
FORT KNOX      MIX PCPN  43  36  75 SE7       29.62F
$$

KYZ035>037-039>044-047>052-055>060-089>105-252000-
NORTHEAST KENTUCKY

CITY           SKY/WX    TMP DP  RH WIND       PRES   REMARKS
LEXINGTON      CLOUDY    40  33  76 SE6       29.67F
COVINGTON      LGT RAIN  40  34  79 SE7       29.67F
FRANKFORT      CLOUDY    42  33  70 E5        29.66F
$$

KYZ054-064>069-076>088-106>120-252000-
SOUTHEAST KENTUCKY

CITY           SKY/WX    TMP DP  RH WIND       PRES   REMARKS
JACKSON        CLOUDY    49  33  54 VRB6      29.70F
LONDON         CLOUDY    51  29  42 S10       29.69F
SOMERSET       CLOUDY    50  32  50 S7        29.69F
MIDDLESBORO    MOSUNNY   51  32  48 S15G25    29.73F
MONTICELLO     CLOUDY    54  34  46 S15       29.69F
$$



USA.gov is the U.S. government's official web portal to all federal, state and local government web resources and services.